Wetterdaten: Mittwoch, 22.01.2014
Datum Zeit Temperatur Luftfeuchte Luftdruck Regen Wind Richtung Richtung Taupunkt Windchill Windben
22.01.2014 00:00 0,8 C 97 % 1013,6 hPa 0,0 l/m 1,0 km/h (0 Bft) O-NO 67 0,4 C 0,9 C 2,6 km/h (1 Bft)
22.01.2014 00:05 0,7 C 97 % 1013,4 hPa 0,0 l/m 2,4 km/h (1 Bft) O 90 0,3 C 0,9 C 3,4 km/h (1 Bft)
22.01.2014 00:10 0,7 C 97 % 1013,4 hPa 0,0 l/m 1,6 km/h (1 Bft) O 90 0,3 C 0,9 C 1,9 km/h (1 Bft)
22.01.2014 00:15 0,7 C 97 % 1013,4 hPa 0,0 l/m 0,5 km/h (0 Bft) O-NO 67 0,3 C 0,9 C 0,0 km/h (0 Bft)
22.01.2014 00:20 0,6 C 97 % 1013,4 hPa 0,0 l/m 0,2 km/h (0 Bft) O-SO 112 0,2 C 0,8 C 0,0 km/h (0 Bft)
22.01.2014 00:25 0,5 C 97 % 1013,1 hPa 0,0 l/m 0,0 km/h (0 Bft) SW 225 0,1 C 0,7 C 0,0 km/h (0 Bft)
22.01.2014 00:30 0,4 C 97 % 1013,1 hPa 0,0 l/m 0,0 km/h (0 Bft) S 180 -0,0 C 0,6 C 0,0 km/h (0 Bft)
22.01.2014 00:35 0,5 C 97 % 1013,1 hPa 0,0 l/m 0,0 km/h (0 Bft) SO 135 0,1 C 0,5 C 0,0 km/h (0 Bft)
22.01.2014 00:40 0,6 C 97 % 1013,1 hPa 0,0 l/m 0,5 km/h (0 Bft) O 90 0,2 C 0,5 C 0,0 km/h (0 Bft)
22.01.2014 00:45 0,6 C 97 % 1013,2 hPa 0,0 l/m 0,5 km/h (0 Bft) O 90 0,2 C 0,6 C 0,0 km/h (0 Bft)
22.01.2014 00:50 0,6 C 97 % 1013,2 hPa 0,0 l/m 0,2 km/h (0 Bft) O 90 0,2 C 0,5 C 2,6 km/h (1 Bft)
22.01.2014 00:55 0,6 C 97 % 1013,2 hPa 0,0 l/m 0,6 km/h (0 Bft) O 90 0,2 C 0,5 C 0,0 km/h (0 Bft)
22.01.2014 01:00 0,6 C 97 % 1013,2 hPa 0,0 l/m 0,8 km/h (0 Bft) O-SO 112 0,2 C 0,6 C 0,0 km/h (0 Bft)
22.01.2014 01:05 0,6 C 97 % 1013,1 hPa 0,0 l/m 0,3 km/h (0 Bft) O-NO 67 0,2 C 0,6 C 0,0 km/h (0 Bft)
22.01.2014 01:08 0,6 C 97 % 1013,1 hPa 0,0 l/m 0,8 km/h (0 Bft) O 90 0,2 C 0,6 C 1,8 km/h (1 Bft)
22.01.2014 01:10 0,6 C 97 % 1013,1 hPa 0,0 l/m 0,8 km/h (0 Bft) O 90 0,2 C 0,6 C 1,8 km/h (1 Bft)
22.01.2014 01:15 0,6 C 97 % 1013,1 hPa 0,0 l/m 0,8 km/h (0 Bft) O 90 0,2 C 0,6 C 1,6 km/h (1 Bft)
22.01.2014 01:20 0,6 C 97 % 1013,1 hPa 0,0 l/m 1,0 km/h (0 Bft) O 90 0,2 C 0,6 C 2,7 km/h (1 Bft)
22.01.2014 01:25 0,6 C 97 % 1013,1 hPa 0,0 l/m 1,1 km/h (1 Bft) O 90 0,2 C 0,6 C 1,9 km/h (1 Bft)
22.01.2014 01:30 0,6 C 97 % 1013,1 hPa 0,0 l/m 1,3 km/h (1 Bft) SO 135 0,2 C 0,6 C 0,0 km/h (0 Bft)
22.01.2014 01:35 0,4 C 97 % 1013,1 hPa 0,0 l/m 0,6 km/h (0 Bft) O 90 -0,0 C 0,6 C 0,0 km/h (0 Bft)
22.01.2014 01:40 0,4 C 97 % 1013,1 hPa 0,0 l/m 0,3 km/h (0 Bft) O-SO 112 -0,0 C 0,5 C 4,2 km/h (1 Bft)
22.01.2014 01:45 0,5 C 97 % 1012,9 hPa 0,0 l/m 2,3 km/h (1 Bft) O-SO 112 0,1 C 0,5 C 5,5 km/h (1 Bft)
22.01.2014 01:50 0,6 C 97 % 1012,9 hPa 0,0 l/m 4,7 km/h (1 Bft) SO 135 0,2 C -0,8 C 7,1 km/h (2 Bft)
22.01.2014 01:55 0,5 C 97 % 1012,9 hPa 0,0 l/m 3,2 km/h (1 Bft) W-SW 247 0,1 C 0,1 C 2,7 km/h (1 Bft)
22.01.2014 02:00 0,3 C 97 % 1012,9 hPa 0,0 l/m 1,4 km/h (1 Bft) O-SO 112 -0,1 C 0,5 C 4,8 km/h (1 Bft)
22.01.2014 02:05 0,4 C 97 % 1012,9 hPa 0,0 l/m 2,7 km/h (1 Bft) S-SO 157 -0,0 C 0,2 C 2,4 km/h (1 Bft)
22.01.2014 02:10 0,4 C 97 % 1012,9 hPa 0,0 l/m 3,9 km/h (1 Bft) SO 135 -0,0 C -0,4 C 4,5 km/h (1 Bft)
22.01.2014 02:15 0,4 C 97 % 1012,9 hPa 0,0 l/m 3,1 km/h (1 Bft) SO 135 -0,0 C 0,2 C 2,1 km/h (1 Bft)
22.01.2014 02:20 0,4 C 97 % 1012,9 hPa 0,0 l/m 2,4 km/h (1 Bft) O-SO 112 -0,0 C 0,6 C 3,1 km/h (1 Bft)
22.01.2014 02:25 0,4 C 97 % 1012,9 hPa 0,0 l/m 2,4 km/h (1 Bft) O-SO 112 -0,0 C 0,6 C 4,7 km/h (1 Bft)
22.01.2014 02:30 0,5 C 97 % 1012,9 hPa 0,0 l/m 2,7 km/h (1 Bft) O-SO 112 0,1 C 0,5 C 3,2 km/h (1 Bft)
22.01.2014 02:35 0,5 C 97 % 1012,9 hPa 0,0 l/m 2,1 km/h (1 Bft) O-SO 112 0,1 C 0,6 C 4,2 km/h (1 Bft)
22.01.2014 02:40 0,5 C 97 % 1012,9 hPa 0,0 l/m 2,7 km/h (1 Bft) O 90 0,1 C 0,4 C 5,8 km/h (2 Bft)
22.01.2014 02:45 0,5 C 97 % 1013,0 hPa 0,0 l/m 3,7 km/h (1 Bft) O 90 0,1 C -0,1 C 4,7 km/h (1 Bft)
22.01.2014 02:50 0,5 C 97 % 1013,0 hPa 0,0 l/m 4,3 km/h (1 Bft) O-SO 112 0,1 C -0,4 C 7,4 km/h (2 Bft)
22.01.2014 02:55 0,5 C 97 % 1013,0 hPa 0,0 l/m 4,2 km/h (1 Bft) O-SO 112 0,1 C -0,4 C 4,0 km/h (1 Bft)
22.01.2014 03:00 0,4 C 97 % 1013,0 hPa 0,0 l/m 3,2 km/h (1 Bft) NO 45 -0,0 C 0,1 C 3,2 km/h (1 Bft)
22.01.2014 03:05 0,4 C 97 % 1012,8 hPa 0,0 l/m 2,4 km/h (1 Bft) S 180 -0,0 C 0,6 C 1,8 km/h (1 Bft)
22.01.2014 03:10 0,4 C 97 % 1012,8 hPa 0,0 l/m 1,0 km/h (0 Bft) O-SO 112 -0,0 C 0,6 C 0,0 km/h (0 Bft)
22.01.2014 03:15 0,4 C 97 % 1012,8 hPa 0,0 l/m 0,8 km/h (0 Bft) NO 45 -0,0 C 0,5 C 1,6 km/h (1 Bft)
22.01.2014 03:20 0,4 C 97 % 1012,8 hPa 0,0 l/m 0,5 km/h (0 Bft) O-SO 112 -0,0 C 0,5 C 0,0 km/h (0 Bft)
22.01.2014 03:25 0,4 C 97 % 1012,9 hPa 0,0 l/m 0,3 km/h (0 Bft) O 90 -0,0 C 0,5 C 0,0 km/h (0 Bft)
22.01.2014 03:30 0,4 C 97 % 1012,9 hPa 0,0 l/m 0,0 km/h (0 Bft) O 90 -0,0 C 0,4 C 0,0 km/h (0 Bft)
22.01.2014 03:35 0,4 C 97 % 1012,9 hPa 0,0 l/m 0,3 km/h (0 Bft) NO 45 -0,0 C 0,4 C 2,1 km/h (1 Bft)
22.01.2014 03:40 0,4 C 97 % 1012,9 hPa 0,0 l/m 0,8 km/h (0 Bft) O-NO 67 -0,0 C 0,4 C 2,1 km/h (1 Bft)
22.01.2014 03:45 0,4 C 97 % 1012,6 hPa 0,0 l/m 1,1 km/h (1 Bft) O-NO 67 -0,0 C 0,4 C 2,1 km/h (1 Bft)
22.01.2014 03:50 0,4 C 97 % 1012,6 hPa 0,0 l/m 1,1 km/h (1 Bft) O-NO 67 -0,0 C 0,4 C 2,1 km/h (1 Bft)
22.01.2014 03:55 0,4 C 97 % 1012,6 hPa 0,0 l/m 1,6 km/h (1 Bft) NO 45 -0,0 C 0,4 C 2,3 km/h (1 Bft)
22.01.2014 04:00 0,3 C 97 % 1012,6 hPa 0,0 l/m 1,4 km/h (1 Bft) O-NO 67 -0,1 C 0,4 C 2,3 km/h (1 Bft)
22.01.2014 04:05 0,3 C 97 % 1012,7 hPa 0,0 l/m 1,1 km/h (1 Bft) O-NO 67 -0,1 C 0,4 C 0,0 km/h (0 Bft)
22.01.2014 04:10 0,3 C 97 % 1012,7 hPa 0,0 l/m 0,6 km/h (0 Bft) O-NO 67 -0,1 C 0,4 C 2,3 km/h (1 Bft)
22.01.2014 04:15 0,3 C 97 % 1012,7 hPa 0,0 l/m 0,5 km/h (0 Bft) O-NO 67 -0,1 C 0,4 C 0,0 km/h (0 Bft)
22.01.2014 04:20 0,3 C 97 % 1012,7 hPa 0,0 l/m 0,3 km/h (0 Bft) O-NO 67 -0,1 C 0,4 C 0,0 km/h (0 Bft)
22.01.2014 04:25 0,3 C 97 % 1012,8 hPa 0,0 l/m 0,0 km/h (0 Bft) N 360 -0,1 C 0,4 C 0,0 km/h (0 Bft)
22.01.2014 04:30 0,3 C 97 % 1012,8 hPa 0,0 l/m 0,0 km/h (0 Bft) N 360 -0,1 C 0,3 C 0,0 km/h (0 Bft)
22.01.2014 04:35 0,3 C 97 % 1012,8 hPa 0,0 l/m 0,3 km/h (0 Bft) O-NO 67 -0,1 C 0,3 C 1,8 km/h (1 Bft)
22.01.2014 04:40 0,3 C 97 % 1012,8 hPa 0,0 l/m 1,1 km/h (1 Bft) O-NO 67 -0,1 C 0,4 C 0,0 km/h (0 Bft)
22.01.2014 04:45 0,3 C 97 % 1012,6 hPa 0,0 l/m 1,0 km/h (0 Bft) N-NO 22 -0,1 C 0,4 C 0,0 km/h (0 Bft)
22.01.2014 04:50 0,3 C 97 % 1012,6 hPa 0,0 l/m 0,0 km/h (0 Bft) O 90 -0,1 C 0,4 C 0,0 km/h (0 Bft)
22.01.2014 04:55 0,3 C 97 % 1012,6 hPa 0,0 l/m 0,0 km/h (0 Bft) O 90 -0,1 C 0,3 C 0,0 km/h (0 Bft)
22.01.2014 05:00 0,2 C 97 % 1012,6 hPa 0,0 l/m 0,0 km/h (0 Bft) O 90 -0,2 C 0,3 C 0,0 km/h (0 Bft)
22.01.2014 05:05 0,2 C 97 % 1012,6 hPa 0,0 l/m 0,2 km/h (0 Bft) S 180 -0,2 C 0,3 C 2,3 km/h (1 Bft)
22.01.2014 05:10 0,2 C 97 % 1012,6 hPa 0,0 l/m 0,3 km/h (0 Bft) SO 135 -0,2 C 0,3 C 0,0 km/h (0 Bft)
22.01.2014 05:15 0,2 C 97 % 1012,6 hPa 0,0 l/m 0,3 km/h (0 Bft) O-SO 112 -0,2 C 0,2 C 0,0 km/h (0 Bft)
22.01.2014 05:20 0,2 C 97 % 1012,6 hPa 0,0 l/m 0,0 km/h (0 Bft) O-SO 112 -0,2 C 0,2 C 0,0 km/h (0 Bft)
22.01.2014 05:25 0,2 C 97 % 1012,5 hPa 0,0 l/m 0,0 km/h (0 Bft) O 90 -0,2 C 0,3 C 0,0 km/h (0 Bft)
22.01.2014 05:30 0,2 C 97 % 1012,5 hPa 0,0 l/m 0,2 km/h (0 Bft) N 360 -0,2 C 0,2 C 0,0 km/h (0 Bft)
22.01.2014 05:35 0,2 C 97 % 1012,5 hPa 0,0 l/m 0,2 km/h (0 Bft) N 360 -0,2 C 0,2 C 0,0 km/h (0 Bft)
22.01.2014 05:40 0,2 C 97 % 1012,5 hPa 0,0 l/m 0,0 km/h (0 Bft) O-SO 112 -0,2 C 0,2 C 0,0 km/h (0 Bft)
22.01.2014 05:45 0,2 C 97 % 1012,5 hPa 0,0 l/m 0,0 km/h (0 Bft) O-SO 112 -0,2 C 0,3 C 0,0 km/h (0 Bft)
22.01.2014 05:50 0,2 C 97 % 1012,5 hPa 0,0 l/m 0,0 km/h (0 Bft) S 180 -0,2 C 0,3 C 0,0 km/h (0 Bft)
22.01.2014 05:55 0,2 C 97 % 1012,5 hPa 0,0 l/m 0,0 km/h (0 Bft) S 180 -0,2 C 0,3 C 0,0 km/h (0 Bft)
22.01.2014 06:00 0,2 C 97 % 1012,5 hPa 0,0 l/m 0,2 km/h (0 Bft) O-SO 112 -0,2 C 0,2 C 0,0 km/h (0 Bft)
22.01.2014 06:05 0,2 C 98 % 1012,5 hPa 0,0 l/m 0,3 km/h (0 Bft) O-SO 112 -0,1 C 0,2 C 0,0 km/h (0 Bft)
22.01.2014 06:10 0,2 C 98 % 1012,5 hPa 0,0 l/m 0,2 km/h (0 Bft) S 180 -0,1 C 0,2 C 0,0 km/h (0 Bft)
22.01.2014 06:15 0,2 C 98 % 1012,5 hPa 0,0 l/m 0,0 km/h (0 Bft) O 90 -0,1 C 0,2 C 0,0 km/h (0 Bft)
22.01.2014 06:20 0,3 C 98 % 1012,5 hPa 0,0 l/m 0,0 km/h (0 Bft) O-NO 67 0,0 C 0,2 C 0,0 km/h (0 Bft)
22.01.2014 06:25 0,3 C 98 % 1012,7 hPa 0,0 l/m 0,2 km/h (0 Bft) O-NO 67 0,0 C 0,3 C 1,6 km/h (1 Bft)
22.01.2014 06:30 0,3 C 98 % 1012,7 hPa 0,0 l/m 0,8 km/h (0 Bft) O 90 0,0 C 0,3 C 1,6 km/h (1 Bft)
22.01.2014 06:35 0,3 C 98 % 1012,7 hPa 0,0 l/m 1,3 km/h (1 Bft) O 90 0,0 C 0,4 C 1,6 km/h (1 Bft)
22.01.2014 06:40 0,3 C 98 % 1012,7 hPa 0,0 l/m 0,5 km/h (0 Bft) O-SO 112 0,0 C 0,4 C 0,0 km/h (0 Bft)
22.01.2014 06:45 0,3 C 98 % 1012,6 hPa 0,0 l/m 0,2 km/h (0 Bft) O-SO 112 0,0 C 0,4 C 0,0 km/h (0 Bft)
22.01.2014 06:50 0,3 C 98 % 1012,6 hPa 0,0 l/m 0,2 km/h (0 Bft) O-SO 112 0,0 C 0,4 C 0,0 km/h (0 Bft)
22.01.2014 06:55 0,4 C 98 % 1012,6 hPa 0,0 l/m 0,0 km/h (0 Bft) NO 45 0,1 C 0,4 C 0,0 km/h (0 Bft)
22.01.2014 07:00 0,3 C 98 % 1012,6 hPa 0,0 l/m 0,0 km/h (0 Bft) SO 135 0,0 C 0,4 C 0,0 km/h (0 Bft)
22.01.2014 07:05 0,3 C 98 % 1012,6 hPa 0,0 l/m 0,0 km/h (0 Bft) N 360 0,0 C 0,4 C 0,0 km/h (0 Bft)
22.01.2014 07:08 0,3 C 98 % 1012,6 hPa 0,0 l/m 0,0 km/h (0 Bft) N 360 0,0 C 0,4 C 0,0 km/h (0 Bft)
22.01.2014 07:10 0,3 C 98 % 1012,6 hPa 0,0 l/m 0,0 km/h (0 Bft) N 360 0,0 C 0,4 C 0,0 km/h (0 Bft)
22.01.2014 07:15 0,3 C 98 % 1012,6 hPa 0,0 l/m 0,0 km/h (0 Bft) N-NW 337 0,0 C 0,4 C 0,0 km/h (0 Bft)
22.01.2014 07:20 0,3 C 98 % 1012,6 hPa 0,0 l/m 0,0 km/h (0 Bft) N 360 0,0 C 0,4 C 0,0 km/h (0 Bft)
22.01.2014 07:25 0,3 C 98 % 1012,7 hPa 0,0 l/m 0,0 km/h (0 Bft) N-NW 337 0,0 C 0,4 C 0,0 km/h (0 Bft)
22.01.2014 07:30 0,3 C 98 % 1012,7 hPa 0,0 l/m 0,0 km/h (0 Bft) N-NO 22 0,0 C 0,4 C 0,0 km/h (0 Bft)
22.01.2014 07:35 0,3 C 98 % 1012,7 hPa 0,0 l/m 0,0 km/h (0 Bft) N-NO 22 0,0 C 0,4 C 0,0 km/h (0 Bft)
22.01.2014 07:40 0,3 C 98 % 1012,7 hPa 0,0 l/m 0,0 km/h (0 Bft) N 360 0,0 C 0,4 C 0,0 km/h (0 Bft)
22.01.2014 07:45 0,3 C 98 % 1012,8 hPa 0,0 l/m 0,0 km/h (0 Bft) N-NW 337 0,0 C 0,4 C 0,0 km/h (0 Bft)
22.01.2014 07:50 0,3 C 98 % 1012,8 hPa 0,0 l/m 0,0 km/h (0 Bft) N-NW 337 0,0 C 0,4 C 0,0 km/h (0 Bft)
22.01.2014 07:55 0,3 C 98 % 1012,8 hPa 0,0 l/m 0,0 km/h (0 Bft) N-NW 337 0,0 C 0,4 C 0,0 km/h (0 Bft)
22.01.2014 08:00 0,3 C 98 % 1012,8 hPa 0,0 l/m 0,6 km/h (0 Bft) W-NW 292 0,0 C 0,4 C 0,0 km/h (0 Bft)
22.01.2014 08:05 0,3 C 98 % 1012,8 hPa 0,0 l/m 1,1 km/h (1 Bft) N-NW 337 0,0 C 0,4 C 4,0 km/h (1 Bft)
22.01.2014 08:10 0,3 C 98 % 1012,8 hPa 0,0 l/m 1,4 km/h (1 Bft) N 360 0,0 C 0,4 C 3,5 km/h (1 Bft)
22.01.2014 08:15 0,3 C 98 % 1012,8 hPa 0,0 l/m 2,1 km/h (1 Bft) W-NW 292 0,0 C 0,4 C 3,1 km/h (1 Bft)
22.01.2014 08:20 0,3 C 98 % 1012,8 hPa 0,0 l/m 1,8 km/h (1 Bft) NO 45 0,0 C 0,4 C 1,8 km/h (1 Bft)
22.01.2014 08:25 0,3 C 98 % 1013,0 hPa 0,0 l/m 1,4 km/h (1 Bft) N-NO 22 0,0 C 0,4 C 1,8 km/h (1 Bft)
22.01.2014 08:30 0,3 C 98 % 1013,0 hPa 0,0 l/m 0,8 km/h (0 Bft) N 360 0,0 C 0,4 C 1,9 km/h (1 Bft)
22.01.2014 08:35 0,3 C 98 % 1013,0 hPa 0,0 l/m 1,4 km/h (1 Bft) N 360 0,0 C 0,4 C 3,7 km/h (1 Bft)
22.01.2014 08:40 0,3 C 98 % 1013,0 hPa 0,0 l/m 1,4 km/h (1 Bft) N 360 0,0 C 0,4 C 0,0 km/h (0 Bft)
22.01.2014 08:45 0,3 C 98 % 1012,9 hPa 0,0 l/m 0,6 km/h (0 Bft) N 360 0,0 C 0,4 C 0,0 km/h (0 Bft)
22.01.2014 08:50 0,3 C 98 % 1012,9 hPa 0,0 l/m 1,0 km/h (0 Bft) N-NW 337 0,0 C 0,5 C 2,3 km/h (1 Bft)
22.01.2014 08:55 0,3 C 98 % 1012,9 hPa 0,0 l/m 1,6 km/h (1 Bft) N-NW 337 0,0 C 0,5 C 1,8 km/h (1 Bft)
22.01.2014 09:00 0,3 C 98 % 1012,9 hPa 0,0 l/m 1,4 km/h (1 Bft) NW 315 0,0 C 0,5 C 2,9 km/h (1 Bft)
22.01.2014 09:05 0,3 C 98 % 1013,0 hPa 0,0 l/m 1,4 km/h (1 Bft) N 360 0,0 C 0,5 C 1,6 km/h (1 Bft)
22.01.2014 09:10 0,3 C 98 % 1013,0 hPa 0,0 l/m 1,6 km/h (1 Bft) N-NW 337 0,0 C 0,6 C 2,3 km/h (1 Bft)
22.01.2014 09:15 0,3 C 98 % 1013,0 hPa 0,0 l/m 1,3 km/h (1 Bft) N-NW 337 0,0 C 0,6 C 2,6 km/h (1 Bft)
22.01.2014 09:20 0,4 C 98 % 1013,0 hPa 0,0 l/m 1,1 km/h (1 Bft) N-NW 337 0,1 C 0,7 C 0,0 km/h (0 Bft)
22.01.2014 09:25 0,4 C 98 % 1012,9 hPa 0,0 l/m 1,0 km/h (0 Bft) N-NO 22 0,1 C 0,7 C 0,0 km/h (0 Bft)
22.01.2014 09:30 0,4 C 98 % 1012,9 hPa 0,0 l/m 1,0 km/h (0 Bft) W-NW 292 0,1 C 0,8 C 2,7 km/h (1 Bft)
22.01.2014 09:35 0,5 C 98 % 1012,9 hPa 0,0 l/m 1,8 km/h (1 Bft) N-NW 337 0,2 C 0,8 C 3,7 km/h (1 Bft)
22.01.2014 09:40 0,5 C 97 % 1012,9 hPa 0,0 l/m 2,1 km/h (1 Bft) N-NW 337 0,1 C 0,9 C 0,0 km/h (0 Bft)
22.01.2014 09:45 0,6 C 97 % 1013,0 hPa 0,0 l/m 1,3 km/h (1 Bft) W-NW 292 0,2 C 1,0 C 0,0 km/h (0 Bft)
22.01.2014 09:50 0,6 C 97 % 1013,0 hPa 0,0 l/m 1,0 km/h (0 Bft) N 360 0,2 C 1,0 C 3,1 km/h (1 Bft)
22.01.2014 09:55 0,7 C 97 % 1013,0 hPa 0,0 l/m 1,0 km/h (0 Bft) W 270 0,3 C 1,0 C 0,0 km/h (0 Bft)
22.01.2014 10:00 0,7 C 97 % 1013,0 hPa 0,0 l/m 2,1 km/h (1 Bft) NW 315 0,3 C 1,1 C 3,9 km/h (1 Bft)
22.01.2014 10:05 0,7 C 97 % 1013,0 hPa 0,0 l/m 2,7 km/h (1 Bft) N 360 0,3 C 1,1 C 3,7 km/h (1 Bft)
22.01.2014 10:10 0,8 C 97 % 1013,0 hPa 0,0 l/m 2,7 km/h (1 Bft) NW 315 0,4 C 1,2 C 3,7 km/h (1 Bft)
22.01.2014 10:15 0,9 C 97 % 1013,0 hPa 0,0 l/m 3,1 km/h (1 Bft) W 270 0,5 C 1,1 C 3,4 km/h (1 Bft)
22.01.2014 10:20 1,0 C 97 % 1013,0 hPa 0,0 l/m 2,9 km/h (1 Bft) W-NW 292 0,6 C 1,4 C 1,8 km/h (1 Bft)
22.01.2014 10:25 1,1 C 97 % 1013,1 hPa 0,0 l/m 2,1 km/h (1 Bft) W-SW 247 0,7 C 1,7 C 0,0 km/h (0 Bft)
22.01.2014 10:30 1,1 C 97 % 1013,1 hPa 0,0 l/m 1,3 km/h (1 Bft) N 360 0,7 C 1,9 C 0,0 km/h (0 Bft)
22.01.2014 10:35 1,2 C 97 % 1013,1 hPa 0,0 l/m 0,8 km/h (0 Bft) W 270 0,8 C 2,0 C 0,0 km/h (0 Bft)
22.01.2014 10:40 1,2 C 97 % 1013,1 hPa 0,0 l/m 1,9 km/h (1 Bft) W-SW 247 0,8 C 1,9 C 2,6 km/h (1 Bft)
22.01.2014 10:45 1,2 C 97 % 1013,2 hPa 0,0 l/m 2,9 km/h (1 Bft) N-NW 337 0,8 C 1,7 C 3,9 km/h (1 Bft)
22.01.2014 10:50 1,2 C 97 % 1013,2 hPa 0,0 l/m 2,7 km/h (1 Bft) W-SW 247 0,8 C 2,1 C 3,2 km/h (1 Bft)
22.01.2014 10:55 1,3 C 96 % 1013,2 hPa 0,0 l/m 2,9 km/h (1 Bft) W 270 0,7 C 1,9 C 3,9 km/h (1 Bft)
22.01.2014 11:00 1,3 C 96 % 1013,2 hPa 0,0 l/m 2,9 km/h (1 Bft) N-NW 337 0,7 C 2,1 C 2,9 km/h (1 Bft)
22.01.2014 11:05 1,5 C 96 % 1013,4 hPa 0,0 l/m 2,6 km/h (1 Bft) W-NW 292 0,9 C 2,3 C 1,6 km/h (1 Bft)
22.01.2014 11:10 1,4 C 96 % 1013,4 hPa 0,0 l/m 3,1 km/h (1 Bft) N-NW 337 0,8 C 2,2 C 7,6 km/h (2 Bft)
22.01.2014 11:15 1,5 C 96 % 1013,4 hPa 0,0 l/m 3,9 km/h (1 Bft) W-NW 292 0,9 C 1,9 C 4,8 km/h (1 Bft)
22.01.2014 11:20 1,5 C 95 % 1013,4 hPa 0,0 l/m 4,5 km/h (1 Bft) W 270 0,8 C 1,6 C 5,3 km/h (1 Bft)
22.01.2014 11:25 1,4 C 95 % 1013,2 hPa 0,0 l/m 4,3 km/h (1 Bft) W-NW 292 0,7 C 1,7 C 6,4 km/h (2 Bft)
22.01.2014 11:30 1,6 C 95 % 1013,2 hPa 0,0 l/m 4,2 km/h (1 Bft) W-NW 292 0,9 C 1,7 C 4,8 km/h (1 Bft)
22.01.2014 11:35 1,5 C 95 % 1013,2 hPa 0,0 l/m 4,0 km/h (1 Bft) W 270 0,8 C 1,7 C 3,2 km/h (1 Bft)
22.01.2014 11:40 1,5 C 94 % 1013,2 hPa 0,0 l/m 3,4 km/h (1 Bft) NW 315 0,6 C 2,1 C 0,0 km/h (0 Bft)
22.01.2014 11:45 1,6 C 94 % 1013,1 hPa 0,0 l/m 3,2 km/h (1 Bft) W-NW 292 0,7 C 2,3 C 2,4 km/h (1 Bft)
22.01.2014 11:50 1,5 C 94 % 1013,1 hPa 0,0 l/m 3,7 km/h (1 Bft) N-NW 337 0,6 C 2,0 C 8,0 km/h (2 Bft)
22.01.2014 11:55 1,7 C 93 % 1013,1 hPa 0,0 l/m 3,9 km/h (1 Bft) W 270 0,7 C 1,9 C 3,2 km/h (1 Bft)
22.01.2014 12:00 1,7 C 93 % 1013,1 hPa 0,0 l/m 3,7 km/h (1 Bft) N 360 0,7 C 2,1 C 6,3 km/h (2 Bft)
22.01.2014 12:05 1,7 C 92 % 1012,9 hPa 0,0 l/m 4,0 km/h (1 Bft) W-NW 292 0,5 C 1,9 C 6,4 km/h (2 Bft)
22.01.2014 12:10 1,7 C 92 % 1012,9 hPa 0,0 l/m 4,2 km/h (1 Bft) W 270 0,5 C 1,7 C 5,0 km/h (1 Bft)
22.01.2014 12:15 1,8 C 92 % 1012,9 hPa 0,0 l/m 4,0 km/h (1 Bft) NW 315 0,6 C 1,8 C 3,4 km/h (1 Bft)
22.01.2014 12:20 1,9 C 92 % 1012,9 hPa 0,0 l/m 4,2 km/h (1 Bft) W-NW 292 0,7 C 1,9 C 4,0 km/h (1 Bft)
22.01.2014 12:25 1,9 C 91 % 1012,9 hPa 0,0 l/m 4,8 km/h (1 Bft) N 360 0,6 C 1,8 C 7,7 km/h (2 Bft)
22.01.2014 12:30 1,8 C 91 % 1012,9 hPa 0,0 l/m 4,5 km/h (1 Bft) N-NW 337 0,5 C 1,9 C 1,9 km/h (1 Bft)
22.01.2014 12:35 1,9 C 91 % 1012,9 hPa 0,0 l/m 3,9 km/h (1 Bft) W-NW 292 0,6 C 2,3 C 2,1 km/h (1 Bft)
22.01.2014 12:40 1,9 C 91 % 1012,9 hPa 0,0 l/m 3,1 km/h (1 Bft) W-NW 292 0,6 C 2,8 C 3,5 km/h (1 Bft)
22.01.2014 12:45 1,8 C 91 % 1012,8 hPa 0,0 l/m 3,4 km/h (1 Bft) N-NW 337 0,5 C 2,6 C 5,0 km/h (1 Bft)
22.01.2014 12:50 1,7 C 91 % 1012,8 hPa 0,0 l/m 3,9 km/h (1 Bft) W-NW 292 0,4 C 2,1 C 6,4 km/h (2 Bft)
22.01.2014 12:55 1,7 C 91 % 1012,8 hPa 0,0 l/m 3,9 km/h (1 Bft) W-NW 292 0,4 C 1,9 C 2,3 km/h (1 Bft)
22.01.2014 13:00 1,6 C 91 % 1012,8 hPa 0,0 l/m 3,1 km/h (1 Bft) W 270 0,3 C 2,3 C 2,1 km/h (1 Bft)
22.01.2014 13:03 1,8 C 91 % 1012,6 hPa 0,0 l/m 2,4 km/h (1 Bft) W-NW 292 0,5 C 2,6 C 4,3 km/h (1 Bft)
22.01.2014 13:05 1,8 C 91 % 1012,6 hPa 0,0 l/m 2,4 km/h (1 Bft) W-NW 292 0,5 C 2,6 C 4,3 km/h (1 Bft)
22.01.2014 13:10 1,8 C 91 % 1012,6 hPa 0,0 l/m 3,2 km/h (1 Bft) N-NW 337 0,5 C 2,4 C 6,9 km/h (2 Bft)
22.01.2014 13:15 1,7 C 91 % 1012,6 hPa 0,0 l/m 4,7 km/h (1 Bft) W 270 0,4 C 1,6 C 3,7 km/h (1 Bft)
22.01.2014 13:20 1,7 C 91 % 1012,6 hPa 0,0 l/m 4,5 km/h (1 Bft) N 360 0,4 C 1,6 C 3,7 km/h (1 Bft)
22.01.2014 13:25 1,8 C 91 % 1012,6 hPa 0,0 l/m 2,7 km/h (1 Bft) W-NW 292 0,5 C 2,6 C 4,3 km/h (1 Bft)
22.01.2014 13:30 1,8 C 91 % 1012,6 hPa 0,0 l/m 2,3 km/h (1 Bft) W-NW 292 0,5 C 2,8 C 3,4 km/h (1 Bft)
22.01.2014 13:35 1,7 C 91 % 1012,6 hPa 0,0 l/m 2,4 km/h (1 Bft) N 360 0,4 C 2,7 C 0,0 km/h (0 Bft)
22.01.2014 13:40 1,7 C 92 % 1012,6 hPa 0,0 l/m 2,1 km/h (1 Bft) N 360 0,5 C 2,7 C 1,9 km/h (1 Bft)
22.01.2014 13:45 1,8 C 92 % 1012,6 hPa 0,0 l/m 2,3 km/h (1 Bft) W-NW 292 0,6 C 2,7 C 4,5 km/h (1 Bft)
22.01.2014 13:50 1,8 C 92 % 1012,6 hPa 0,0 l/m 2,6 km/h (1 Bft) NW 315 0,6 C 2,7 C 1,6 km/h (1 Bft)
22.01.2014 13:55 1,8 C 91 % 1012,6 hPa 0,0 l/m 2,3 km/h (1 Bft) NO 45 0,5 C 2,8 C 0,0 km/h (0 Bft)
22.01.2014 14:00 1,8 C 92 % 1012,6 hPa 0,0 l/m 1,8 km/h (1 Bft) N-NO 22 0,6 C 2,7 C 2,1 km/h (1 Bft)
22.01.2014 14:05 1,8 C 92 % 1012,3 hPa 0,0 l/m 1,6 km/h (1 Bft) N-NW 337 0,6 C 2,7 C 0,0 km/h (0 Bft)
22.01.2014 14:10 1,8 C 92 % 1012,3 hPa 0,0 l/m 1,1 km/h (1 Bft) W-NW 292 0,6 C 2,7 C 0,0 km/h (0 Bft)
22.01.2014 14:15 1,9 C 92 % 1012,3 hPa 0,0 l/m 1,9 km/h (1 Bft) W 270 0,7 C 2,7 C 4,2 km/h (1 Bft)
22.01.2014 14:20 1,9 C 92 % 1012,3 hPa 0,0 l/m 3,1 km/h (1 Bft) W-NW 292 0,7 C 2,3 C 3,1 km/h (1 Bft)
22.01.2014 14:25 1,9 C 92 % 1012,3 hPa 0,0 l/m 2,9 km/h (1 Bft) W 270 0,7 C 2,4 C 2,4 km/h (1 Bft)
22.01.2014 14:30 2,0 C 92 % 1012,3 hPa 0,0 l/m 1,3 km/h (1 Bft) W-NW 292 0,8 C 2,7 C 0,0 km/h (0 Bft)
22.01.2014 14:35 1,9 C 92 % 1012,3 hPa 0,0 l/m 1,3 km/h (1 Bft) NW 315 0,7 C 2,7 C 3,1 km/h (1 Bft)
22.01.2014 14:40 1,9 C 92 % 1012,3 hPa 0,0 l/m 1,4 km/h (1 Bft) W 270 0,7 C 2,8 C 1,6 km/h (1 Bft)
22.01.2014 14:45 1,9 C 92 % 1012,1 hPa 0,0 l/m 1,3 km/h (1 Bft) N-NO 22 0,7 C 2,8 C 0,0 km/h (0 Bft)
22.01.2014 14:50 1,9 C 92 % 1012,1 hPa 0,0 l/m 1,8 km/h (1 Bft) W-NW 292 0,7 C 2,8 C 0,0 km/h (0 Bft)
22.01.2014 14:55 1,9 C 93 % 1012,1 hPa 0,0 l/m 1,8 km/h (1 Bft) N-NW 337 0,9 C 2,7 C 4,3 km/h (1 Bft)
22.01.2014 15:00 1,9 C 92 % 1012,1 hPa 0,0 l/m 1,8 km/h (1 Bft) W 270 0,7 C 2,7 C 3,4 km/h (1 Bft)
22.01.2014 15:05 1,9 C 93 % 1012,4 hPa 0,0 l/m 2,4 km/h (1 Bft) W 270 0,9 C 2,7 C 3,7 km/h (1 Bft)
22.01.2014 15:10 1,9 C 93 % 1012,4 hPa 0,0 l/m 2,1 km/h (1 Bft) W-SW 247 0,9 C 2,6 C 4,2 km/h (1 Bft)
22.01.2014 15:15 1,9 C 93 % 1012,4 hPa 0,0 l/m 2,6 km/h (1 Bft) W-SW 247 0,9 C 2,6 C 3,7 km/h (1 Bft)
22.01.2014 15:20 1,9 C 93 % 1012,4 hPa 0,0 l/m 3,1 km/h (1 Bft) W 270 0,9 C 2,3 C 3,1 km/h (1 Bft)
22.01.2014 15:25 1,9 C 93 % 1012,7 hPa 0,0 l/m 2,6 km/h (1 Bft) N 360 0,9 C 2,6 C 2,6 km/h (1 Bft)
22.01.2014 15:30 1,9 C 93 % 1012,7 hPa 0,0 l/m 2,3 km/h (1 Bft) N-NW 337 0,9 C 2,6 C 2,1 km/h (1 Bft)
22.01.2014 15:35 1,9 C 93 % 1012,7 hPa 0,0 l/m 1,9 km/h (1 Bft) N 360 0,9 C 2,6 C 4,5 km/h (1 Bft)
22.01.2014 15:40 1,9 C 92 % 1012,7 hPa 0,0 l/m 1,8 km/h (1 Bft) N 360 0,7 C 2,6 C 5,1 km/h (1 Bft)
22.01.2014 15:45 1,8 C 92 % 1012,0 hPa 0,0 l/m 1,9 km/h (1 Bft) N-NW 337 0,6 C 2,6 C 2,6 km/h (1 Bft)
22.01.2014 15:50 1,8 C 93 % 1012,0 hPa 0,0 l/m 1,9 km/h (1 Bft) W-NW 292 0,8 C 2,5 C 3,5 km/h (1 Bft)
22.01.2014 15:55 1,8 C 93 % 1012,0 hPa 0,0 l/m 1,6 km/h (1 Bft) NO 45 0,8 C 2,5 C 1,8 km/h (1 Bft)
22.01.2014 16:00 1,8 C 93 % 1012,0 hPa 0,0 l/m 1,4 km/h (1 Bft) N 360 0,8 C 2,4 C 3,2 km/h (1 Bft)
22.01.2014 16:05 1,7 C 93 % 1012,8 hPa 0,0 l/m 1,8 km/h (1 Bft) NW 315 0,7 C 2,4 C 5,3 km/h (1 Bft)
22.01.2014 16:10 1,8 C 92 % 1012,8 hPa 0,0 l/m 2,7 km/h (1 Bft) N 360 0,6 C 2,3 C 4,2 km/h (1 Bft)
22.01.2014 16:15 1,8 C 92 % 1012,8 hPa 0,0 l/m 2,7 km/h (1 Bft) N-NW 337 0,6 C 2,3 C 4,2 km/h (1 Bft)
22.01.2014 16:20 1,8 C 92 % 1012,8 hPa 0,0 l/m 2,6 km/h (1 Bft) N 360 0,6 C 2,4 C 4,2 km/h (1 Bft)
22.01.2014 16:25 1,8 C 92 % 1012,7 hPa 0,0 l/m 2,6 km/h (1 Bft) N 360 0,6 C 2,4 C 1,9 km/h (1 Bft)
22.01.2014 16:30 1,7 C 93 % 1012,7 hPa 0,0 l/m 2,3 km/h (1 Bft) W-NW 292 0,7 C 2,3 C 2,3 km/h (1 Bft)
22.01.2014 16:35 1,7 C 93 % 1012,7 hPa 0,0 l/m 2,3 km/h (1 Bft) N-NW 337 0,7 C 2,3 C 5,0 km/h (1 Bft)
22.01.2014 16:40 1,6 C 93 % 1012,7 hPa 0,0 l/m 3,1 km/h (1 Bft) S-SW 202 0,6 C 1,9 C 7,2 km/h (2 Bft)
22.01.2014 16:45 1,6 C 92 % 1012,8 hPa 0,0 l/m 3,4 km/h (1 Bft) NW 315 0,4 C 1,6 C 4,7 km/h (1 Bft)
22.01.2014 16:50 1,6 C 93 % 1012,8 hPa 0,0 l/m 2,6 km/h (1 Bft) NO 45 0,6 C 2,1 C 2,3 km/h (1 Bft)
22.01.2014 16:55 1,6 C 93 % 1012,8 hPa 0,0 l/m 1,9 km/h (1 Bft) NO 45 0,6 C 2,0 C 0,0 km/h (0 Bft)
22.01.2014 17:00 1,5 C 93 % 1012,8 hPa 0,0 l/m 1,9 km/h (1 Bft) N-NW 337 0,5 C 2,0 C 3,4 km/h (1 Bft)
22.01.2014 17:05 1,5 C 93 % 1013,1 hPa 0,0 l/m 2,4 km/h (1 Bft) N-NW 337 0,5 C 1,9 C 3,1 km/h (1 Bft)
22.01.2014 17:10 1,4 C 93 % 1013,1 hPa 0,0 l/m 2,9 km/h (1 Bft) N 360 0,4 C 1,7 C 3,9 km/h (1 Bft)
22.01.2014 17:15 1,4 C 93 % 1013,1 hPa 0,0 l/m 2,4 km/h (1 Bft) N 360 0,4 C 1,9 C 3,5 km/h (1 Bft)
22.01.2014 17:20 1,4 C 93 % 1013,1 hPa 0,0 l/m 1,8 km/h (1 Bft) N-NO 22 0,4 C 1,8 C 0,0 km/h (0 Bft)
22.01.2014 17:25 1,3 C 93 % 1013,1 hPa 0,0 l/m 1,0 km/h (0 Bft) NO 45 0,3 C 1,8 C 0,0 km/h (0 Bft)
22.01.2014 17:30 1,3 C 94 % 1013,1 hPa 0,0 l/m 1,0 km/h (0 Bft) N 360 0,4 C 1,8 C 2,1 km/h (1 Bft)
22.01.2014 17:35 1,3 C 94 % 1013,1 hPa 0,0 l/m 1,9 km/h (1 Bft) N 360 0,4 C 1,8 C 3,7 km/h (1 Bft)
22.01.2014 17:40 1,3 C 94 % 1013,1 hPa 0,0 l/m 1,3 km/h (1 Bft) N 360 0,4 C 1,7 C 1,8 km/h (1 Bft)
22.01.2014 17:45 1,2 C 94 % 1013,2 hPa 0,0 l/m 0,8 km/h (0 Bft) NO 45 0,3 C 1,7 C 0,0 km/h (0 Bft)
22.01.2014 17:50 1,2 C 94 % 1013,2 hPa 0,0 l/m 0,2 km/h (0 Bft) NO 45 0,3 C 1,6 C 0,0 km/h (0 Bft)
22.01.2014 17:55 1,2 C 94 % 1013,2 hPa 0,0 l/m 0,0 km/h (0 Bft) N-NO 22 0,3 C 1,6 C 0,0 km/h (0 Bft)
22.01.2014 18:00 1,2 C 95 % 1013,2 hPa 0,0 l/m 0,2 km/h (0 Bft) NO 45 0,5 C 1,5 C 0,0 km/h (0 Bft)
22.01.2014 18:05 1,2 C 95 % 1013,1 hPa 0,0 l/m 0,6 km/h (0 Bft) NO 45 0,5 C 1,5 C 1,9 km/h (1 Bft)
22.01.2014 18:10 1,2 C 95 % 1013,1 hPa 0,0 l/m 1,3 km/h (1 Bft) N-NW 337 0,5 C 1,6 C 0,0 km/h (0 Bft)
22.01.2014 18:15 1,3 C 95 % 1013,1 hPa 0,0 l/m 1,4 km/h (1 Bft) N-NW 337 0,6 C 1,6 C 7,1 km/h (2 Bft)
22.01.2014 18:20 1,3 C 95 % 1013,1 hPa 0,0 l/m 1,3 km/h (1 Bft) N-NO 22 0,6 C 1,7 C 0,0 km/h (0 Bft)
22.01.2014 18:25 1,3 C 95 % 1013,2 hPa 0,0 l/m 0,5 km/h (0 Bft) NO 45 0,6 C 1,7 C 0,0 km/h (0 Bft)
22.01.2014 18:30 1,2 C 95 % 1013,2 hPa 0,0 l/m 0,0 km/h (0 Bft) NO 45 0,5 C 1,6 C 0,0 km/h (0 Bft)
22.01.2014 18:35 1,2 C 95 % 1013,2 hPa 0,0 l/m 0,0 km/h (0 Bft) N-NO 22 0,5 C 1,6 C 0,0 km/h (0 Bft)
22.01.2014 18:40 1,2 C 95 % 1013,2 hPa 0,0 l/m 0,0 km/h (0 Bft) NO 45 0,5 C 1,6 C 0,0 km/h (0 Bft)
22.01.2014 18:45 1,2 C 95 % 1013,5 hPa 0,0 l/m 0,0 km/h (0 Bft) NO 45 0,5 C 1,5 C 0,0 km/h (0 Bft)
22.01.2014 18:50 1,3 C 95 % 1013,5 hPa 0,0 l/m 0,0 km/h (0 Bft) W-NW 292 0,6 C 1,6 C 0,0 km/h (0 Bft)
22.01.2014 18:55 1,3 C 95 % 1013,5 hPa 0,0 l/m 0,0 km/h (0 Bft) N-NO 22 0,6 C 1,6 C 0,0 km/h (0 Bft)
22.01.2014 19:00 1,2 C 95 % 1013,5 hPa 0,0 l/m 0,0 km/h (0 Bft) N-NO 22 0,5 C 1,6 C 0,0 km/h (0 Bft)
22.01.2014 19:03 1,3 C 95 % 1013,6 hPa 0,0 l/m 0,0 km/h (0 Bft) N 360 0,6 C 1,6 C 0,0 km/h (0 Bft)
22.01.2014 19:05 1,3 C 95 % 1013,6 hPa 0,0 l/m 0,0 km/h (0 Bft) N 360 0,6 C 1,6 C 0,0 km/h (0 Bft)
22.01.2014 19:10 1,2 C 95 % 1013,6 hPa 0,0 l/m 0,0 km/h (0 Bft) N-NW 337 0,5 C 1,6 C 0,0 km/h (0 Bft)
22.01.2014 19:15 1,3 C 95 % 1013,6 hPa 0,0 l/m 0,0 km/h (0 Bft) N 360 0,6 C 1,6 C 0,0 km/h (0 Bft)
22.01.2014 19:20 1,4 C 95 % 1013,6 hPa 0,0 l/m 0,0 km/h (0 Bft) NW 315 0,7 C 1,6 C 0,0 km/h (0 Bft)
22.01.2014 19:25 1,3 C 95 % 1013,8 hPa 0,0 l/m 0,0 km/h (0 Bft) N 360 0,6 C 1,6 C 0,0 km/h (0 Bft)
22.01.2014 19:30 1,3 C 95 % 1013,8 hPa 0,0 l/m 0,0 km/h (0 Bft) NO 45 0,6 C 1,6 C 0,0 km/h (0 Bft)
22.01.2014 19:35 1,3 C 96 % 1013,8 hPa 0,0 l/m 0,0 km/h (0 Bft) N-NO 22 0,7 C 1,6 C 0,0 km/h (0 Bft)
22.01.2014 19:40 1,3 C 96 % 1013,8 hPa 0,0 l/m 0,3 km/h (0 Bft) N-NO 22 0,7 C 1,6 C 1,8 km/h (1 Bft)
22.01.2014 19:45 1,3 C 96 % 1013,7 hPa 0,0 l/m 0,6 km/h (0 Bft) N-NW 337 0,7 C 1,6 C 0,0 km/h (0 Bft)
22.01.2014 19:50 1,3 C 96 % 1013,7 hPa 0,0 l/m 0,8 km/h (0 Bft) N 360 0,7 C 1,6 C 3,9 km/h (1 Bft)
22.01.2014 19:55 1,3 C 96 % 1013,7 hPa 0,0 l/m 0,8 km/h (0 Bft) N-NW 337 0,7 C 1,6 C 0,0 km/h (0 Bft)
22.01.2014 20:00 1,3 C 96 % 1013,7 hPa 0,0 l/m 0,6 km/h (0 Bft) NO 45 0,7 C 1,6 C 0,0 km/h (0 Bft)
22.01.2014 20:05 1,3 C 96 % 1013,7 hPa 0,0 l/m 0,6 km/h (0 Bft) N 360 0,7 C 1,6 C 1,9 km/h (1 Bft)
22.01.2014 20:10 1,3 C 96 % 1013,7 hPa 0,0 l/m 1,9 km/h (1 Bft) N-NO 22 0,7 C 1,6 C 2,6 km/h (1 Bft)
22.01.2014 20:15 1,3 C 96 % 1013,7 hPa 0,0 l/m 1,9 km/h (1 Bft) NW 315 0,7 C 1,6 C 0,0 km/h (0 Bft)
22.01.2014 20:20 1,3 C 96 % 1013,7 hPa 0,0 l/m 0,5 km/h (0 Bft) W 270 0,7 C 1,6 C 0,0 km/h (0 Bft)
22.01.2014 20:25 1,3 C 96 % 1013,9 hPa 0,0 l/m 0,2 km/h (0 Bft) NW 315 0,7 C 1,6 C 1,8 km/h (1 Bft)
22.01.2014 20:30 1,3 C 96 % 1013,9 hPa 0,0 l/m 0,3 km/h (0 Bft) N 360 0,7 C 1,6 C 0,0 km/h (0 Bft)
22.01.2014 20:35 1,3 C 96 % 1013,9 hPa 0,0 l/m 0,2 km/h (0 Bft) N-NO 22 0,7 C 1,6 C 0,0 km/h (0 Bft)
22.01.2014 20:40 1,2 C 96 % 1013,9 hPa 0,0 l/m 0,6 km/h (0 Bft) N 360 0,6 C 1,6 C 3,2 km/h (1 Bft)
22.01.2014 20:45 1,3 C 96 % 1014,1 hPa 0,0 l/m 1,6 km/h (1 Bft) N 360 0,7 C 1,6 C 2,6 km/h (1 Bft)
22.01.2014 20:50 1,2 C 96 % 1014,1 hPa 0,0 l/m 1,9 km/h (1 Bft) N-NO 22 0,6 C 1,6 C 0,0 km/h (0 Bft)
22.01.2014 20:55 1,2 C 96 % 1014,1 hPa 0,0 l/m 1,1 km/h (1 Bft) N-NO 22 0,6 C 1,6 C 0,0 km/h (0 Bft)
22.01.2014 21:00 1,2 C 96 % 1014,1 hPa 0,0 l/m 0,5 km/h (0 Bft) NO 45 0,6 C 1,6 C 2,3 km/h (1 Bft)
22.01.2014 21:05 1,2 C 96 % 1014,1 hPa 0,0 l/m 0,5 km/h (0 Bft) N-NO 22 0,6 C 1,6 C 0,0 km/h (0 Bft)
22.01.2014 21:10 1,2 C 96 % 1014,1 hPa 0,0 l/m 0,2 km/h (0 Bft) N-NO 22 0,6 C 1,5 C 0,0 km/h (0 Bft)
22.01.2014 21:15 1,2 C 96 % 1014,1 hPa 0,0 l/m 0,2 km/h (0 Bft) N-NW 337 0,6 C 1,5 C 0,0 km/h (0 Bft)
22.01.2014 21:20 1,1 C 96 % 1014,1 hPa 0,0 l/m 0,0 km/h (0 Bft) N-NO 22 0,5 C 1,5 C 0,0 km/h (0 Bft)
22.01.2014 21:25 1,1 C 96 % 1014,1 hPa 0,0 l/m 0,0 km/h (0 Bft) N-NO 22 0,5 C 1,5 C 0,0 km/h (0 Bft)
22.01.2014 21:30 1,1 C 96 % 1014,1 hPa 0,0 l/m 0,0 km/h (0 Bft) N-NW 337 0,5 C 1,4 C 0,0 km/h (0 Bft)
22.01.2014 21:35 1,1 C 96 % 1014,1 hPa 0,0 l/m 0,0 km/h (0 Bft) N 360 0,5 C 1,4 C 0,0 km/h (0 Bft)
22.01.2014 21:40 1,1 C 96 % 1014,1 hPa 0,0 l/m 0,5 km/h (0 Bft) NO 45 0,5 C 1,5 C 5,0 km/h (1 Bft)
22.01.2014 21:45 1,2 C 96 % 1014,2 hPa 0,0 l/m 0,8 km/h (0 Bft) W-NW 292 0,6 C 1,5 C 2,6 km/h (1 Bft)
22.01.2014 21:50 1,2 C 96 % 1014,2 hPa 0,0 l/m 0,6 km/h (0 Bft) N 360 0,6 C 1,5 C 0,0 km/h (0 Bft)
22.01.2014 21:55 1,2 C 96 % 1014,2 hPa 0,0 l/m 0,5 km/h (0 Bft) NO 45 0,6 C 1,5 C 0,0 km/h (0 Bft)
22.01.2014 22:00 1,1 C 96 % 1014,2 hPa 0,0 l/m 0,3 km/h (0 Bft) O 90 0,5 C 1,5 C 1,8 km/h (1 Bft)
22.01.2014 22:05 1,1 C 96 % 1014,1 hPa 0,0 l/m 0,2 km/h (0 Bft) NO 45 0,5 C 1,5 C 0,0 km/h (0 Bft)
22.01.2014 22:10 1,1 C 96 % 1014,1 hPa 0,0 l/m 0,2 km/h (0 Bft) NO 45 0,5 C 1,5 C 0,0 km/h (0 Bft)
22.01.2014 22:15 1,1 C 96 % 1014,1 hPa 0,0 l/m 0,0 km/h (0 Bft) O 90 0,5 C 1,4 C 0,0 km/h (0 Bft)
22.01.2014 22:20 1,1 C 96 % 1014,1 hPa 0,0 l/m 0,5 km/h (0 Bft) O 90 0,5 C 1,4 C 2,1 km/h (1 Bft)
22.01.2014 22:25 1,1 C 96 % 1014,4 hPa 0,0 l/m 1,3 km/h (1 Bft) O-SO 112 0,5 C 1,4 C 2,9 km/h (1 Bft)
22.01.2014 22:30 1,1 C 96 % 1014,4 hPa 0,0 l/m 1,6 km/h (1 Bft) SO 135 0,5 C 1,4 C 0,0 km/h (0 Bft)
22.01.2014 22:35 1,1 C 96 % 1014,4 hPa 0,0 l/m 1,4 km/h (1 Bft) SO 135 0,5 C 1,4 C 2,7 km/h (1 Bft)
22.01.2014 22:40 1,1 C 96 % 1014,4 hPa 0,0 l/m 1,1 km/h (1 Bft) SO 135 0,5 C 1,4 C 2,7 km/h (1 Bft)
22.01.2014 22:45 1,1 C 96 % 1014,4 hPa 0,0 l/m 2,1 km/h (1 Bft) O 90 0,5 C 1,4 C 6,3 km/h (2 Bft)
22.01.2014 22:50 1,0 C 96 % 1014,4 hPa 0,0 l/m 3,1 km/h (1 Bft) O-SO 112 0,4 C 1,0 C 4,8 km/h (1 Bft)
22.01.2014 22:55 1,0 C 96 % 1014,4 hPa 0,0 l/m 3,7 km/h (1 Bft) S 180 0,4 C 0,5 C 3,1 km/h (1 Bft)
22.01.2014 23:00 0,9 C 96 % 1014,4 hPa 0,0 l/m 3,2 km/h (1 Bft) S-SO 157 0,3 C 0,8 C 3,9 km/h (1 Bft)
22.01.2014 23:05 0,9 C 96 % 1014,6 hPa 0,0 l/m 1,9 km/h (1 Bft) S-SW 202 0,3 C 1,2 C 1,6 km/h (1 Bft)
22.01.2014 23:10 0,8 C 96 % 1014,6 hPa 0,0 l/m 0,6 km/h (0 Bft) S-SO 157 0,2 C 1,1 C 0,0 km/h (0 Bft)
22.01.2014 23:15 0,8 C 96 % 1014,6 hPa 0,0 l/m 0,0 km/h (0 Bft) S-SO 157 0,2 C 1,1 C 0,0 km/h (0 Bft)
22.01.2014 23:20 0,7 C 96 % 1014,6 hPa 0,0 l/m 0,2 km/h (0 Bft) S-SO 157 0,1 C 1,0 C 0,0 km/h (0 Bft)
22.01.2014 23:25 0,7 C 96 % 1014,5 hPa 0,0 l/m 0,2 km/h (0 Bft) O-SO 112 0,1 C 1,0 C 0,0 km/h (0 Bft)
22.01.2014 23:30 0,7 C 96 % 1014,5 hPa 0,0 l/m 0,2 km/h (0 Bft) NO 45 0,1 C 1,0 C 0,0 km/h (0 Bft)
22.01.2014 23:35 0,7 C 96 % 1014,5 hPa 0,0 l/m 0,2 km/h (0 Bft) O-NO 67 0,1 C 1,0 C 0,0 km/h (0 Bft)
22.01.2014 23:40 0,7 C 96 % 1014,5 hPa 0,0 l/m 1,1 km/h (1 Bft) S-SO 157 0,1 C 1,0 C 3,5 km/h (1 Bft)
22.01.2014 23:45 0,7 C 96 % 1014,6 hPa 0,0 l/m 2,6 km/h (1 Bft) O-SO 112 0,1 C 0,9 C 6,4 km/h (2 Bft)
22.01.2014 23:50 0,7 C 95 % 1014,6 hPa 0,0 l/m 4,2 km/h (1 Bft) NO 45 -0,0 C -0,2 C 4,3 km/h (1 Bft)
22.01.2014 23:55 0,6 C 95 % 1014,6 hPa 0,0 l/m 3,2 km/h (1 Bft) O-NO 67 -0,1 C 0,4 C 1,8 km/h (1 Bft)
_ Min-Zeit 06:15 13:55 16:00 - 23:15 - - 06:00 01:50 23:35
Minimum _ 0,2 C 91 % 1012,0 hPa - 0,0 km/h (0 Bft) - - -0,2 C -0,8 C 0,0 km/h (0 Bft)
_ Max-Zeit 14:30 09:35 23:55 23:55 12:25 - - 11:15 14:50 11:50
Maximum _ 2,0 C 98 % 1014,6 hPa 0,0 l/m 4,8 km/h
N (1 Bft)
- - 0,9 C 2,8 C 8,0 km/h
N-NW (2 Bft)
Durchschnitt _ 1,0 C 96 % 1013,1 hPa #0,0 l/m 1,5 km/h (1 Bft) W-NW - 0,3 C 1,3 C 1,9 km/h (1 Bft)